Wind_Speed
20 19 18 17 17 16 16 17 18 19 21 23 24 25 26 26 26 27 26 24 23 21 20 19 18 18 17 16 16 16 16 16 16 16 15 14 13 13 13 12 11 11 10
20 19 17 16 15 15 15 16 17 18 19 21 23 25 27 26 26 26 26 25 23 22 20 19 18 19 18 17 17 17 16 17 17 16 16 16 14 14 13 12 12 11 10
19 18 17 15 14 13 13 14 16 17 18 20 21 24 26 26 26 26 26 26 24 22 21 20 19 19 18 18 18 17 17 17 17 17 17 17 16 14 14 13 13 12 11
19 18 17 15 13 12 12 12 14 16 18 19 20 23 25 25 25 27 26 26 24 23 21 20 19 19 19 18 18 17 17 17 18 18 18 18 17 15 15 14 13 12 12
19 18 16 15 12 10 10 10 12 14 17 19 20 21 24 25 25 26 26 26 25 24 22 21 20 20 19 19 19 18 17 18 19 19 19 18 18 16 16 15 15 14 13
19 18 16 14 11 10 9 9 10 11 15 17 18 20 21 22 24 24 26 25 25 25 23 22 21 20 20 20 19 19 19 19 19 19 19 18 18 17 17 17 16 15 14
18 18 16 14 12 9 7 6 7 9 13 15 16 18 20 21 22 23 24 25 25 25 24 23 22 21 20 20 20 19 19 20 20 19 19 19 19 19 18 17 17 16 16
18 18 17 14 11 9 6 4 4 7 10 13 15 16 19 20 22 23 24 25 24 24 24 23 22 22 21 21 20 20 20 20 20 20 19 20 19 19 18 18 17 17 17
18 17 16 14 11 8 6 4 2 5 9 12 13 15 17 19 20 22 22 24 24 24 23 22 22 21 21 21 21 20 20 20 20 20 20 20 20 20 19 18 18 18 18
17 17 16 14 12 9 6 4 0 3 7 10 12 13 16 17 18 20 21 22 24 24 23 23 23 23 22 21 21 21 21 21 21 21 20 20 20 20 20 19 19 19 19
16 16 16 14 12 9 7 5 2 3 5 8 10 12 13 15 16 18 19 21 24 24 23 23 24 24 24 23 23 22 22 22 22 22 21 20 20 21 20 20 20 20 20
15 15 15 14 12 10 7 5 3 3 4 6 9 11 12 13 15 16 18 19 22 23 23 22 23 24 25 25 24 24 23 23 23 23 22 22 21 22 21 21 21 22 22
14 14 13 12 11 10 8 6 5 3 4 5 7 9 10 11 13 14 17 19 20 21 22 22 23 24 25 25 25 24 24 25 24 24 24 24 23 23 23 23 23 23 23
14 13 12 11 10 10 8 7 6 4 4 4 5 6 8 9 11 13 15 17 19 20 21 22 22 23 24 25 26 25 25 25 25 25 26 26 25 25 25 24 25 25 25
13 12 12 11 10 9 8 6 5 5 4 3 3 4 5 7 9 10 13 16 17 18 20 21 22 23 24 24 24 26 27 25 26 26 26 26 27 27 27 27 27 27 27
11 11 11 10 10 10 8 6 5 4 3 3 3 3 4 5 6 8 11 14 16 17 18 20 21 22 22 23 23 24 26 26 26 26 26 27 27 28 28 29 29 29 30
10 10 10 9 9 9 8 7 5 4 3 2 2 2 2 3 5 6 9 12 14 15 16 18 20 20 21 22 22 23 24 26 27 27 28 28 29 29 30 30 31 31 32
9 9 9 9 8 8 7 7 6 4 3 2 1 1 1 2 3 5 7 10 13 14 15 17 19 20 21 22 22 22 23 25 27 27 28 28 30 31 31 32 32 33 34
8 8 8 8 8 7 7 6 5 4 3 2 1 0 1 2 3 5 6 8 10 12 14 16 17 18 20 21 22 22 23 24 26 26 27 27 29 30 31 32 33 33 34
7 8 8 8 7 7 6 6 5 4 3 2 2 1 2 2 3 4 5 7 9 11 12 14 15 16 18 19 20 21 22 23 25 26 26 27 28 29 31 32 33 33 34
7 7 7 7 7 6 6 5 5 4 3 3 2 2 3 3 3 4 5 6 8 9 11 13 14 14 16 18 19 20 21 22 23 24 26 27 28 29 30 31 33 34 35
7 6 6 6 6 6 5 5 5 5 4 4 3 3 3 4 4 5 5 6 7 9 11 12 14 15 16 17 19 20 21 22 23 25 26 27 28 30 31 31 33 34 36
9 8 7 7 6 6 5 5 5 5 5 4 4 4 4 4 5 5 6 7 8 9 11 12 13 14 16 17 18 20 21 22 23 24 26 27 28 30 31 32 33 34 35
11 10 9 8 7 6 6 6 6 6 5 5 5 5 5 6 6 6 7 8 9 10 11 12 14 15 16 17 19 20 21 22 23 24 25 26 28 29 30 31 32 33 34
14 13 11 10 9 8 7 7 7 7 7 6 6 7 7 7 8 8 8 9 10 11 12 13 14 15 17 18 18 20 21 22 23 24 25 26 28 29 30 31 31 33 34
17 16 14 13 12 11 10 9 9 9 9 9 8 9 9 9 9 10 10 11 11 12 13 14 15 16 17 18 19 20 21 23 24 25 26 27 28 29 30 32 32 33 34
Wind_Direction
325 320 311 303 293 281 270 261 255 248 242 237 235 232 230 229 227 224 223 221 220 221 221 220 220 219 217 215 212 209 209 205 203 200 199 197 197 194 190 188 187 185 181
330 325 319 310 297 284 272 262 255 247 241 235 231 228 225 225 223 220 218 218 219 218 217 219 218 217 216 214 212 212 209 206 204 204 203 202 199 197 196 195 195 192 189
335 330 324 317 303 288 275 264 254 246 238 233 227 223 221 220 220 216 214 215 215 215 214 215 214 214 214 214 213 212 210 208 208 207 206 204 203 202 202 200 199 197 196
338 335 330 323 311 295 278 265 253 242 234 229 223 221 220 217 215 213 213 213 213 213 211 212 214 213 213 213 214 213 213 212 210 209 207 206 206 206 206 204 204 203 203
342 340 336 330 320 306 287 267 252 239 230 225 221 219 217 217 215 213 212 211 211 210 210 212 213 213 213 213 214 214 214 212 209 207 208 209 209 209 210 210 211 212 211
345 343 341 337 327 315 298 271 250 237 222 218 217 215 212 214 212 210 210 209 209 211 212 211 213 213 213 212 214 215 214 212 209 207 209 211 212 214 214 215 217 217 217
348 346 344 342 336 327 313 281 248 229 215 211 210 211 210 210 209 207 207 207 209 211 212 212 213 213 212 213 215 216 212 211 209 209 212 213 214 215 216 218 220 221 222
352 350 348 348 346 340 331 305 256 214 209 205 204 208 209 210 208 206 207 207 209 208 207 210 211 212 213 214 215 214 210 210 212 212 214 214 215 216 218 221 222 224 225
356 356 354 355 355 354 349 336 268 205 200 201 203 205 206 206 206 206 207 209 210 210 209 209 210 211 211 212 214 213 211 211 214 214 215 216 218 218 221 224 226 228 227
357 359 360 2 2 4 6 6 318 194 195 197 199 202 204 205 205 205 205 209 211 210 212 214 214 213 212 212 214 214 213 214 215 217 218 220 221 222 224 226 228 228 228
359 1 4 8 10 14 20 28 56 154 175 188 194 196 200 203 203 204 206 207 209 212 214 216 215 215 216 216 216 216 217 219 219 220 221 223 224 225 227 229 230 230 231
360 2 5 9 15 20 27 38 64 125 160 176 187 194 196 200 201 205 207 209 209 211 213 213 214 216 217 218 218 218 221 223 224 224 225 227 228 229 231 233 234 234 234
1 3 6 10 14 19 27 38 60 100 141 167 183 191 196 199 202 204 207 210 210 212 215 217 218 219 221 223 222 223 226 227 226 227 230 231 232 234 235 237 237 237 238
2 5 7 11 15 20 26 37 56 79 110 140 170 186 193 194 199 204 207 211 212 214 215 218 219 221 222 224 226 228 230 229 229 231 234 235 236 238 239 240 240 240 242
4 8 10 13 16 20 26 37 50 66 87 119 147 171 185 192 199 206 209 210 212 214 217 219 222 224 226 228 231 231 230 233 234 235 237 237 239 241 241 242 243 244 245
5 9 12 15 19 22 24 30 41 61 79 105 124 151 172 189 204 210 209 211 214 216 219 220 222 225 228 231 232 231 232 235 236 237 238 240 241 242 243 245 246 248 248
4 6 9 13 17 21 26 28 34 42 57 88 122 148 166 196 210 211 209 210 213 217 221 222 222 225 229 230 231 232 234 237 239 241 243 244 244 245 247 249 249 250 251
0 2 5 8 11 13 15 20 25 28 30 46 82 151 191 212 222 218 216 213 214 217 221 224 227 229 231 233 234 236 237 240 242 244 246 248 248 249 250 251 251 252 253
355 357 359 2 3 1 1 3 5 11 15 14 7 326 243 234 228 224 224 220 218 220 224 227 229 232 234 236 237 239 241 243 245 247 249 251 252 252 252 253 254 255 254
344 346 349 353 356 355 355 355 354 354 348 340 323 291 271 260 247 233 230 228 226 228 231 232 233 234 234 237 240 242 245 247 248 250 252 254 255 255 255 254 255 256 257
325 333 339 344 348 350 349 349 349 346 343 330 307 284 273 272 270 258 248 242 238 239 238 238 240 240 241 243 245 247 250 251 252 254 256 256 257 257 258 257 257 257 258
301 310 322 330 335 337 337 336 335 334 333 327 314 296 282 275 268 259 257 253 250 248 246 246 249 251 251 251 251 253 254 255 256 257 260 260 260 261 260 259 259 259 260
282 290 299 307 315 319 320 318 317 317 315 312 308 299 291 285 278 269 266 264 261 258 256 255 255 257 257 257 258 258 259 260 260 261 262 264 263 262 261 261 261 261 261
271 275 281 287 294 300 305 307 308 308 307 303 302 303 299 292 287 281 276 273 271 268 264 263 262 262 262 262 263 264 265 265 265 264 264 266 266 266 264 264 263 263 263
263 265 269 273 278 284 288 293 296 298 298 296 295 297 299 297 293 289 285 281 279 276 272 269 268 267 267 267 267 268 268 267 268 268 267 268 269 269 269 269 268 266 265
258 260 263 266 270 274 278 283 286 288 289 289 290 292 293 293 292 290 288 286 284 282 279 276 275 274 273 272 272 272 272 271 271 271 271 271 271 271 271 272 271 270 268
Height
5811 5807 5804 5802 5800 5798 5798 5798 5799 5800 5801 5803 5806 5809 5813 5816 5820 5824 5827 5831 5835 5838 5841 5844 5847 5850 5853 5855 5858 5861 5863 5866 5868 5871 5873 5875 5877 5879 5881 5883 5884 5886 5887
5807 5804 5800 5798 5795 5794 5794 5794 5794 5795 5796 5798 5801 5804 5808 5812 5816 5819 5823 5828 5832 5835 5838 5841 5844 5847 5850 5853 5856 5859 5861 5864 5867 5869 5871 5874 5876 5878 5880 5882 5884 5885 5887
5804 5800 5797 5794 5792 5790 5790 5789 5790 5791 5792 5794 5797 5800 5804 5808 5811 5815 5819 5824 5828 5832 5836 5839 5842 5845 5848 5851 5854 5856 5859 5862 5864 5867 5870 5872 5875 5877 5879 5881 5882 5884 5886
5801 5798 5794 5791 5788 5787 5786 5785 5785 5786 5788 5790 5793 5796 5799 5803 5808 5812 5816 5820 5825 5828 5832 5836 5839 5842 5845 5848 5851 5854 5857 5859 5862 5865 5868 5871 5873 5875 5877 5879 5881 5883 5885
5799 5796 5792 5788 5786 5784 5782 5782 5782 5782 5784 5786 5789 5792 5796 5799 5804 5808 5813 5817 5821 5825 5829 5833 5836 5840 5843 5846 5849 5852 5854 5857 5860 5863 5866 5869 5871 5873 5876 5878 5880 5882 5883
5798 5794 5790 5786 5784 5781 5780 5779 5779 5779 5781 5783 5786 5789 5793 5796 5800 5804 5809 5814 5818 5822 5826 5830 5833 5837 5840 5843 5846 5849 5852 5855 5858 5861 5864 5866 5869 5871 5874 5876 5878 5880 5882
5796 5792 5788 5785 5782 5779 5777 5776 5776 5776 5778 5780 5783 5787 5790 5793 5797 5802 5806 5810 5815 5819 5823 5827 5831 5834 5837 5841 5844 5846 5849 5852 5855 5858 5861 5864 5866 5869 5871 5873 5875 5877 5879
5795 5791 5787 5784 5781 5778 5776 5774 5774 5775 5776 5778 5781 5784 5788 5792 5795 5799 5803 5808 5812 5816 5820 5824 5828 5832 5835 5838 5841 5844 5846 5849 5853 5856 5858 5861 5864 5866 5869 5871 5873 5875 5877
5795 5791 5787 5783 5780 5777 5775 5774 5773 5774 5775 5778 5780 5783 5786 5790 5793 5797 5801 5805 5809 5813 5817 5821 5825 5828 5832 5835 5838 5841 5844 5847 5850 5853 5855 5858 5861 5863 5866 5868 5870 5872 5874
5794 5790 5787 5783 5780 5778 5776 5774 5774 5774 5775 5777 5779 5782 5785 5788 5792 5796 5799 5803 5807 5811 5814 5818 5822 5825 5829 5832 5835 5838 5841 5844 5847 5850 5853 5855 5858 5860 5862 5865 5867 5869 5871
5794 5791 5787 5784 5781 5778 5777 5775 5774 5774 5775 5777 5779 5781 5783 5786 5790 5793 5797 5800 5804 5808 5812 5815 5819 5822 5825 5829 5832 5835 5838 5841 5844 5847 5850 5852 5855 5857 5859 5861 5863 5865 5867
5794 5791 5788 5785 5782 5779 5777 5776 5775 5775 5776 5777 5779 5781 5783 5785 5788 5791 5794 5798 5801 5805 5808 5812 5815 5818 5822 5825 5828 5832 5835 5838 5841 5844 5846 5849 5851 5853 5855 5857 5859 5861 5863
5794 5791 5788 5786 5783 5781 5779 5777 5777 5776 5777 5778 5779 5780 5782 5784 5787 5789 5792 5795 5798 5802 5805 5809 5812 5815 5818 5822 5825 5828 5831 5834 5837 5840 5842 5845 5847 5849 5851 5853 5855 5857 5858
5794 5792 5789 5787 5784 5782 5780 5779 5778 5778 5778 5778 5779 5780 5781 5783 5786 5788 5790 5793 5796 5799 5802 5805 5808 5811 5814 5817 5820 5823 5827 5829 5832 5835 5838 5840 5842 5845 5846 5848 5850 5852 5854
5795 5792 5790 5787 5785 5783 5782 5780 5779 5779 5779 5779 5779 5780 5781 5783 5784 5786 5788 5791 5794 5796 5799 5802 5804 5807 5810 5813 5816 5819 5822 5825 5828 5830 5833 5835 5837 5839 5841 5843 5845 5846 5848
5795 5792 5790 5788 5786 5785 5783 5781 5780 5780 5780 5780 5780 5780 5781 5782 5783 5785 5786 5788 5791 5793 5796 5798 5801 5803 5806 5809 5811 5814 5817 5819 5822 5825 5827 5829 5831 5833 5835 5837 5839 5840 5842
5795 5793 5791 5789 5787 5786 5784 5783 5782 5781 5780 5780 5780 5780 5781 5781 5782 5783 5784 5786 5788 5790 5792 5795 5797 5799 5802 5804 5807 5809 5812 5814 5816 5819 5821 5823 5825 5827 5828 5830 5832 5833 5835
5795 5793 5791 5789 5788 5786 5785 5784 5783 5782 5781 5780 5780 5780 5780 5780 5781 5781 5782 5783 5785 5787 5789 5791 5793 5795 5797 5800 5802 5804 5806 5808 5810 5812 5814 5816 5818 5819 5821 5822 5824 5825 5827
5795 5793 5791 5789 5788 5786 5785 5784 5783 5782 5781 5780 5780 5780 5780 5780 5780 5780 5781 5781 5783 5784 5786 5787 5789 5791 5793 5795 5797 5799 5801 5803 5804 5806 5807 5809 5810 5811 5813 5814 5815 5817 5818
5794 5792 5790 5789 5787 5786 5785 5784 5783 5782 5781 5780 5780 5779 5779 5779 5779 5779 5779 5780 5781 5782 5783 5784 5785 5787 5788 5790 5792 5794 5795 5797 5798 5799 5800 5801 5802 5803 5804 5806 5807 5808 5809
5792 5791 5789 5788 5787 5785 5784 5783 5782 5781 5780 5780 5779 5779 5779 5778 5778 5778 5778 5778 5779 5779 5780 5781 5782 5783 5785 5786 5787 5788 5790 5791 5792 5793 5793 5794 5795 5795 5796 5797 5798 5798 5799
5790 5789 5788 5787 5785 5784 5783 5782 5781 5780 5780 5779 5778 5778 5777 5777 5777 5776 5776 5776 5776 5777 5777 5778 5779 5780 5780 5781 5782 5783 5784 5785 5785 5786 5786 5787 5787 5787 5788 5788 5788 5789 5790
5788 5787 5786 5785 5784 5783 5782 5781 5780 5779 5778 5778 5777 5776 5776 5775 5775 5775 5774 5774 5774 5774 5775 5775 5775 5776 5776 5777 5777 5778 5778 5778 5778 5778 5778 5779 5779 5779 5779 5779 5779 5779 5779
5784 5784 5783 5782 5781 5781 5780 5779 5778 5777 5777 5776 5775 5775 5774 5773 5773 5772 5772 5772 5771 5771 5771 5771 5771 5772 5772 5772 5772 5772 5771 5771 5771 5771 5771 5771 5771 5770 5770 5769 5769 5769 5769
5780 5780 5779 5779 5778 5778 5777 5776 5776 5775 5774 5774 5773 5772 5772 5771 5770 5770 5769 5769 5768 5768 5768 5767 5767 5767 5767 5766 5766 5766 5765 5765 5764 5764 5764 5763 5763 5762 5761 5761 5760 5759 5759
5775 5775 5775 5775 5774 5774 5774 5773 5773 5772 5771 5771 5770 5770 5769 5768 5767 5766 5766 5765 5764 5764 5763 5763 5762 5762 5761 5761 5760 5760 5759 5758 5757 5757 5756 5756 5755 5754 5753 5752 5751 5750 5749